GFSMW_sfc_rhum_252.txt.gz
RH
54 51 56 63 69 70 76 84 90 92 88 88 90 90 93 95 97 92 90 92 87 92 93 92 94 96 93 93 93 95 94 97 96 95 94 96 95 96 98 96 96 95 94
59 54 54 61 70 72 74 76 79 87 89 88 87 86 88 92 90 90 90 90 88 87 89 90 92 94 93 96 95 94 97 96 97 95 94 95 94 88 88 92 90 91 82
38 57 54 58 64 70 73 73 73 77 80 77 77 88 88 97 96 93 92 90 87 87 83 87 88 93 89 90 94 93 93 96 98 93 92 96 94 93 84 80 79 84 76
20 43 55 56 58 65 64 68 71 72 76 72 74 73 80 76 81 81 84 87 87 87 86 85 85 91 89 92 92 93 91 93 97 98 96 90 91 95 85 67 75 77 72
21 21 44 53 53 53 61 65 70 71 74 71 70 71 70 66 67 75 84 86 89 87 85 86 88 88 91 90 92 94 92 94 93 95 98 94 95 94 86 76 79 80 75
24 21 20 42 50 51 52 63 69 72 73 73 72 72 68 72 77 81 93 90 86 89 90 88 88 86 90 90 91 90 90 88 93 90 94 94 94 96 89 77 78 87 79
26 23 26 21 33 46 51 58 67 73 74 76 74 76 72 74 77 84 87 91 89 92 92 91 90 89 87 87 87 90 88 88 89 92 90 92 92 93 88 86 82 86 80
25 22 23 23 21 25 43 54 64 71 76 75 76 74 75 76 74 79 81 87 88 87 85 92 88 88 88 88 90 89 90 92 92 94 94 96 95 96 94 86 83 84 82
27 22 21 22 22 25 31 45 64 66 72 76 75 74 74 75 77 77 80 84 85 87 89 92 92 92 91 91 92 89 92 94 92 94 95 94 99 96 93 86 80 86 88
23 30 25 27 22 23 29 40 54 66 67 75 74 72 72 73 73 76 83 86 86 88 92 93 93 92 93 94 94 91 92 95 94 95 96 97 96 94 95 90 86 89 89
32 33 33 33 31 30 32 45 52 62 67 73 76 75 76 75 76 77 81 82 84 89 92 91 94 92 94 94 95 91 93 95 96 97 95 95 95 95 95 92 82 84 84
56 57 60 46 37 37 36 36 54 61 64 66 75 78 79 80 82 81 80 84 85 88 89 90 93 92 93 94 93 93 94 94 98 97 96 95 93 93 93 91 83 77 78
60 60 60 60 72 75 46 45 56 62 65 67 76 81 84 85 86 83 81 83 85 89 90 91 92 93 93 94 93 92 95 94 94 95 93 92 89 92 92 87 81 79 74
70 66 65 62 55 60 97 75 55 64 66 70 75 81 83 84 86 84 82 84 87 88 92 92 91 92 92 93 94 94 97 96 96 93 91 88 86 89 90 86 82 78 84
78 74 69 68 62 56 78 95 89 67 79 72 73 80 81 82 84 86 85 86 90 89 91 93 93 94 94 94 95 96 97 97 97 94 93 91 92 91 93 92 87 79 82
83 77 72 66 65 65 63 61 95 97 76 85 77 74 80 85 87 87 88 90 92 92 94 94 93 95 95 100 100 99 97 96 96 98 98 98 98 99 96 91 84 76 78
83 80 76 71 66 65 64 66 97 97 98 75 84 83 85 89 90 89 91 93 94 94 95 94 94 95 95 100 100 100 96 97 97 98 98 99 98 97 96 95 91 87 82
82 82 75 72 65 60 64 70 93 97 97 95 95 92 90 91 91 93 93 93 94 95 95 95 94 96 97 100 100 100 97 97 97 96 96 97 98 96 94 92 90 89 86
84 88 82 72 64 69 70 59 62 91 97 98 99 99 95 93 94 94 94 94 95 95 95 96 98 98 100 100 100 100 98 98 98 97 97 95 94 92 87 86 89 90 94
78 82 89 81 68 74 65 53 54 55 94 98 99 99 99 98 97 96 96 97 96 98 99 99 98 100 99 100 100 98 98 99 99 98 94 92 89 92 91 84 83 87 93
74 76 81 88 87 83 66 58 51 58 90 98 99 99 99 99 99 99 99 99 99 99 99 99 100 99 98 98 100 100 98 98 98 98 97 95 94 89 83 78 75 80 84
71 69 74 78 81 80 71 70 63 57 88 98 97 99 99 99 99 99 99 99 99 99 99 99 100 100 99 100 100 99 99 98 97 98 97 98 90 88 86 82 86 84 83
35 66 72 76 83 84 81 81 75 68 74 95 99 99 99 99 99 99 99 99 99 99 100 99 99 100 100 100 100 99 98 98 99 100 98 95 92 89 91 88 86 84 84
44 39 37 52 74 82 78 74 81 79 79 90 98 98 99 99 99 99 99 99 100 99 100 99 100 100 100 100 100 100 99 97 98 97 97 94 92 92 93 92 87 87 86
49 50 50 48 46 43 61 62 62 80 86 88 95 99 99 99 99 99 99 99 98 99 99 99 99 100 100 100 98 98 100 100 99 99 99 98 98 97 96 95 94 96 96
56 55 56 57 54 51 47 45 47 57 70 92 94 97 99 99 100 100 100 99 100 99 98 99 99 100 100 99 98 97 97 96 95 98 99 98 97 95 95 95 96 96 96

GFSMW_sfc_rhum_255.txt.gz
RH
22 35 52 56 58 67 70 73 74 77 74 75 81 82 84 87 88 81 74 76 73 73 74 62 66 66 64 66 72 66 64 65 69 70 76 76 75 87 92 87 81 83 78
21 32 48 58 62 68 72 73 72 75 74 71 72 73 76 81 82 79 75 75 75 74 71 68 66 70 66 73 76 74 72 70 75 68 71 83 79 65 70 74 78 79 66
22 23 45 60 62 65 71 73 72 73 74 71 72 73 76 78 87 82 78 75 75 75 72 72 68 72 70 71 78 76 73 74 78 74 66 78 72 72 62 71 68 72 78
21 21 25 50 63 64 66 68 72 72 74 74 76 80 74 76 75 75 76 74 76 73 73 71 72 74 71 74 74 72 74 71 72 76 69 71 66 70 67 62 69 67 69
23 22 20 27 51 60 65 68 68 70 74 77 76 78 75 65 62 69 77 78 78 75 71 73 75 75 72 75 79 78 78 75 67 69 72 71 66 72 60 66 72 67 65
24 23 22 20 39 60 67 69 68 66 71 74 75 78 74 68 61 70 74 76 73 75 76 73 74 73 74 75 75 79 80 74 68 64 66 68 70 73 66 61 69 66 64
25 25 22 20 28 51 63 67 68 68 70 74 72 73 73 71 67 69 68 70 71 74 77 78 78 72 73 73 73 79 79 77 73 75 68 62 67 69 63 68 78 75 68
24 24 22 24 24 43 57 62 68 69 69 73 72 70 71 65 62 62 62 65 67 67 71 77 74 74 72 75 78 75 76 81 80 79 72 72 71 71 65 68 78 83 76
24 23 24 26 26 30 51 62 65 68 70 73 72 71 71 67 65 66 68 68 70 66 72 78 80 77 76 77 78 76 81 80 84 81 82 76 77 78 69 70 72 82 89
25 25 24 26 27 27 31 58 61 66 69 74 74 71 70 70 66 68 74 72 73 74 76 78 83 79 80 79 80 80 79 82 84 82 82 80 83 82 78 78 72 78 80
28 29 27 26 28 28 30 43 57 62 67 72 74 74 72 72 72 71 72 76 76 76 78 78 81 81 82 81 82 80 78 82 83 83 83 83 83 84 80 78 76 72 77
30 50 52 50 44 37 33 37 46 54 62 67 72 75 74 74 76 74 74 77 78 78 78 78 78 81 80 82 85 85 82 84 83 83 83 82 87 84 86 86 82 79 73
54 57 57 53 48 52 72 61 43 52 53 62 73 79 80 78 76 76 74 75 78 78 79 78 82 82 83 84 86 86 86 87 85 83 84 82 87 88 90 88 82 81 74
64 61 63 61 59 58 60 73 80 64 56 64 69 79 81 79 77 76 76 77 78 78 80 82 81 82 82 84 85 88 90 92 89 90 85 83 85 91 91 91 89 85 90
70 64 62 64 58 59 64 64 74 81 72 60 70 76 80 80 79 80 79 78 78 80 79 82 81 82 85 86 86 90 92 94 94 94 86 91 89 93 89 89 92 92 95
72 70 65 60 61 59 64 71 82 89 86 81 66 70 76 78 82 82 83 83 81 81 80 86 84 87 87 100 100 97 94 96 98 98 95 92 94 96 98 98 93 90 94
79 68 72 66 63 62 58 58 63 90 92 88 83 66 73 76 79 79 82 85 86 86 87 89 87 88 88 100 100 100 95 98 98 98 99 99 97 98 98 100 99 96 90
84 73 76 67 60 57 55 52 54 67 90 91 90 71 69 74 74 78 82 86 88 92 92 92 89 90 91 100 100 100 98 98 97 97 97 97 98 98 98 98 98 96 94
74 78 80 70 62 60 60 56 53 60 85 95 97 97 93 76 77 83 84 84 93 93 92 91 92 93 94 100 100 100 98 98 98 98 95 95 98 99 97 95 96 93 93
69 73 71 78 72 71 67 61 63 64 76 91 97 97 98 97 84 86 90 87 92 94 95 96 94 98 98 100 100 99 98 98 99 99 98 100 96 98 94 90 89 90 90
59 67 69 68 72 71 71 72 69 73 70 76 91 95 98 98 99 95 95 94 95 97 99 99 99 99 98 98 100 100 98 98 99 99 99 99 97 94 90 86 84 80 77
34 40 61 73 70 67 70 77 80 79 74 73 80 90 97 98 99 99 99 99 98 99 99 99 100 100 99 100 100 100 100 99 98 99 99 99 95 93 93 90 89 87 80
39 36 36 43 48 71 69 75 76 81 85 80 75 81 92 98 99 99 99 99 99 99 100 99 100 100 100 100 100 100 100 100 100 100 99 97 96 93 93 90 89 85 83
45 42 41 42 44 42 52 59 72 66 86 89 83 75 87 98 98 99 99 99 99 100 100 100 100 100 100 100 100 100 100 99 99 99 100 97 95 93 95 94 87 84 83
47 47 48 50 48 46 46 46 47 56 61 79 90 91 88 97 99 99 99 100 99 99 100 100 99 100 100 100 99 99 100 100 99 99 100 100 99 99 98 94 93 92 92
54 56 56 56 54 51 50 48 53 54 56 56 73 92 96 95 99 99 100 100 100 100 100 100 100 100 100 99 99 99 98 97 96 99 100 100 100 100 98 98 96 96 93

GFSMW_sfc_rhum_258.txt.gz
RH
15 14 14 18 29 40 49 54 57 64 66 61 59 55 55 54 55 58 58 60 57 56 57 41 45 49 41 42 47 44 52 49 46 45 59 64 65 70 78 78 71 69 63
11 15 16 22 36 42 51 53 54 57 64 58 55 52 50 52 59 69 65 60 61 58 54 50 47 52 42 51 55 53 44 48 51 50 57 70 63 59 65 71 74 73 66
14 13 16 22 36 43 51 51 52 54 58 58 51 51 52 65 75 80 73 60 61 60 57 54 48 53 48 49 59 60 51 49 53 54 48 55 53 59 60 69 66 72 70
17 14 14 18 34 42 46 51 51 50 55 56 51 58 54 67 66 71 74 58 62 61 58 54 54 56 52 53 58 55 54 51 55 55 47 48 44 55 63 64 70 70 69
18 17 14 14 19 38 44 52 52 52 54 58 53 54 58 55 52 55 67 71 60 63 58 59 60 60 55 58 61 62 64 52 49 52 53 57 53 51 46 59 70 69 67
16 17 16 14 14 30 47 51 53 53 54 59 62 63 66 56 52 56 58 62 58 61 64 61 63 64 61 61 60 64 65 59 55 46 49 51 55 57 50 51 63 66 65
19 16 16 15 16 17 37 51 53 53 55 62 64 65 67 65 61 56 57 59 61 61 67 66 68 64 64 60 59 65 66 67 60 63 50 47 49 47 49 48 56 58 57
19 17 16 17 16 19 21 50 50 51 52 61 66 68 68 59 55 54 50 53 56 58 64 68 66 65 62 62 63 61 63 67 69 68 63 50 49 48 50 51 59 64 59
17 19 16 17 18 18 24 46 51 48 49 59 67 68 70 66 59 60 60 55 56 52 62 67 70 68 66 64 66 64 67 67 72 73 72 60 54 54 53 52 55 58 68
30 21 20 19 17 18 17 34 52 47 52 62 66 66 67 66 61 62 62 61 58 56 56 65 69 67 67 66 68 66 66 68 68 66 70 68 59 58 60 62 58 57 57
44 35 22 19 17 18 19 28 48 46 54 63 67 69 67 65 63 61 62 61 61 56 57 59 65 67 67 67 68 68 65 68 69 69 68 71 67 64 65 73 67 62 59
42 32 30 34 26 20 20 22 33 48 49 58 64 68 66 64 66 65 61 64 64 63 61 60 61 63 64 66 69 71 66 68 71 70 70 68 67 75 77 78 75 74 75
47 44 45 43 39 40 39 27 26 31 41 46 57 65 68 65 67 67 66 62 64 64 62 62 65 66 69 68 71 70 72 70 70 69 70 70 74 83 85 79 80 83 78
55 48 48 49 48 50 49 52 50 40 35 38 48 60 65 65 67 69 68 70 68 67 65 67 67 70 67 67 70 71 78 77 76 77 73 73 74 82 86 90 87 88 89
77 56 48 50 50 54 56 61 65 65 56 44 43 59 65 65 65 70 71 69 69 67 66 69 72 70 73 71 74 76 81 81 83 85 78 83 82 93 92 92 93 91 90
83 77 62 51 46 45 47 53 61 78 82 70 49 49 57 63 71 69 72 74 72 66 67 71 73 79 77 96 100 91 87 83 86 92 91 88 99 98 100 100 96 87 88
89 84 83 67 50 46 46 55 63 79 86 85 76 62 55 59 70 72 70 74 75 72 71 75 77 81 80 100 100 100 84 86 89 92 95 99 98 99 97 100 100 97 90
83 83 84 82 69 56 45 52 59 67 77 89 92 84 69 54 57 69 75 74 76 78 80 82 80 84 82 100 100 100 89 88 91 92 94 95 98 94 95 97 98 96 96
74 80 85 84 79 74 64 55 58 64 69 76 83 92 92 89 59 58 69 73 76 80 82 82 79 88 87 100 100 100 95 97 97 94 92 92 95 98 97 96 98 98 100
56 68 73 83 84 83 75 65 63 66 71 75 76 79 92 95 93 74 63 70 73 76 87 83 80 87 86 100 100 100 97 98 98 98 96 100 93 100 99 93 95 96 96
31 32 60 68 72 74 75 78 63 68 70 70 70 72 83 96 96 93 90 68 72 80 89 87 85 82 90 98 100 100 98 98 99 99 99 98 100 98 97 92 85 87 82
30 28 32 38 42 59 59 71 76 63 69 75 69 70 74 90 96 96 96 97 84 91 94 97 100 99 99 100 100 100 100 100 98 99 99 100 99 98 97 98 94 90 85
32 30 29 30 34 38 42 45 58 62 71 72 81 80 76 80 95 97 97 99 99 100 99 99 100 100 100 100 100 100 100 100 100 100 100 99 98 98 98 95 88 85 84
36 37 35 37 39 39 38 42 43 47 59 75 82 80 90 90 91 96 98 99 99 100 100 100 100 100 100 100 100 100 100 99 99 99 100 99 99 98 97 94 91 86 83
40 40 43 46 44 42 43 41 46 50 51 60 77 88 84 93 92 99 99 99 100 100 100 100 100 100 100 100 100 99 100 100 99 100 100 100 100 99 99 98 97 94 96
46 47 47 47 46 44 44 44 47 52 59 60 67 82 90 87 96 99 99 100 100 100 100 100 100 100 100 100 100 99 99 98 98 100 100 100 100 100 100 100 100 95 94

GFSMW_sfc_rhum_261.txt.gz
RH
10 10 11 12 12 18 27 43 50 54 56 55 56 51 51 49 46 42 48 55 55 52 56 38 41 45 41 41 48 42 46 42 42 39 71 69 63 69 77 61 58 63 61
12 11 12 14 17 16 25 37 44 56 55 53 54 49 49 46 44 45 51 54 60 56 53 52 44 50 41 50 52 52 44 44 45 45 51 72 78 77 76 72 71 73 73
15 14 13 14 16 17 28 34 42 56 58 55 52 50 46 48 51 52 53 55 58 58 56 56 47 53 48 47 56 56 54 50 48 52 50 63 64 65 76 72 70 77 80
13 15 15 13 17 22 30 36 41 53 60 57 52 54 44 47 47 54 58 54 59 58 56 54 54 55 51 50 56 53 54 51 50 50 45 49 56 58 79 67 70 72 73
12 12 14 15 12 18 35 43 43 53 58 64 56 51 51 45 46 56 66 67 60 61 57 59 58 58 54 55 58 61 65 52 46 49 54 53 46 55 53 65 72 71 66
14 13 12 12 13 21 40 46 48 45 55 59 61 56 58 52 50 57 58 65 62 58 62 59 62 61 59 60 58 63 67 60 53 45 49 49 51 50 50 48 63 70 72
15 15 12 11 15 16 30 45 48 46 49 57 59 60 58 59 57 58 57 61 64 60 64 65 66 61 62 60 59 65 67 67 60 60 50 48 48 46 46 47 59 64 62
43 18 14 15 12 18 19 41 41 48 46 53 58 61 58 52 51 54 52 54 56 61 61 66 64 64 62 62 63 62 64 68 69 68 62 52 49 47 46 48 61 63 60
51 48 30 17 17 16 21 27 41 44 47 51 58 62 62 60 57 57 59 58 58 56 62 67 68 67 66 65 65 61 67 68 73 73 71 62 54 52 51 50 56 58 65
52 49 49 33 17 16 16 26 32 41 48 51 58 61 64 63 60 61 62 60 61 59 61 65 69 68 68 66 67 64 64 68 69 68 71 70 62 56 54 58 55 56 57
60 54 54 37 30 19 19 24 28 38 47 51 57 64 66 66 65 62 62 61 61 60 58 62 65 68 68 67 68 67 64 66 69 68 70 72 67 62 58 59 59 59 60
71 58 59 39 33 28 18 18 26 28 43 48 52 64 67 68 70 67 62 64 62 61 60 58 61 63 64 66 67 68 60 65 67 68 68 68 63 71 67 61 68 67 66
79 67 64 42 40 42 38 29 22 24 34 41 52 66 72 70 69 67 65 62 62 61 59 58 59 62 66 66 67 66 66 63 64 65 68 66 68 72 70 68 73 74 72
82 75 72 64 46 49 50 43 44 43 29 34 50 63 70 70 64 65 65 66 63 63 63 62 61 62 61 62 64 65 68 68 64 67 67 66 68 71 75 76 80 83 87
90 85 80 77 55 46 48 54 61 67 69 50 44 58 66 66 66 64 66 65 66 64 63 65 63 63 63 61 68 67 72 72 72 72 68 72 75 84 81 80 87 88 93
88 86 81 75 67 67 55 59 66 78 83 72 61 48 54 60 64 65 68 70 70 67 66 67 67 70 62 84 94 84 73 74 76 78 75 74 94 94 99 100 100 93 92
83 85 84 82 74 66 66 71 69 69 74 84 82 73 59 57 59 60 62 68 72 71 71 69 68 70 72 96 98 100 76 78 82 81 82 86 84 98 93 100 100 99 94
86 86 84 83 83 72 66 66 68 68 71 72 73 81 86 79 60 56 58 65 69 73 73 73 70 72 70 100 100 100 83 84 86 82 82 88 92 96 96 99 99 97 95
52 65 80 86 82 83 72 65 67 71 72 75 72 72 82 90 84 74 58 63 67 71 73 71 72 74 76 100 100 100 90 88 92 90 87 91 96 100 100 98 99 99 100
35 40 60 74 76 85 83 67 70 76 79 80 74 70 75 86 94 92 84 75 64 67 70 70 74 84 80 100 100 99 92 95 96 97 97 100 96 100 100 97 98 98 98
27 27 29 36 37 56 78 78 76 74 78 78 79 77 75 80 87 91 88 84 85 73 74 74 76 82 88 85 100 100 90 96 98 99 100 99 100 100 100 100 97 97 96
27 27 30 30 32 34 41 52 61 74 64 72 78 80 81 76 85 87 90 91 91 95 89 83 90 87 86 99 100 100 100 99 98 99 99 100 100 99 100 99 100 98 95
29 30 32 34 36 36 37 42 47 56 72 65 71 80 81 80 83 92 91 96 96 98 99 99 97 100 100 100 100 100 100 100 100 100 100 100 100 100 100 100 97 95 95
33 34 36 38 41 38 38 39 43 54 63 72 70 75 85 89 84 91 95 95 98 98 99 99 100 100 100 100 100 100 100 100 100 100 100 100 100 100 100 99 97 97 95
34 37 41 42 43 41 40 38 41 48 60 74 70 72 82 84 90 88 96 99 99 100 99 99 100 100 100 100 100 100 100 100 100 100 100 100 100 100 100 100 100 100 100
38 40 41 42 46 45 44 43 46 50 53 59 70 78 78 83 88 93 95 99 100 100 99 100 100 100 100 99 100 100 100 98 98 100 100 100 100 100 100 100 100 100 97